Burlington, NC

4:06 AM EDT on March 29, 2017 (GMT -0400)
Burlington-Alamance Regional

Weather History for KBUY - January, 2013

Change the Weather History Date:

Sunday, January 27, 2013

  Actual Average Record
Temperature  
Mean Temperature 31 °F -  
Max Temperature 39 °F 48 °F 63 °F (2014)
Min Temperature 23 °F 26 °F 30 °F (2014)
Degree Days  
Heating Degree Days 34    
Moisture  
Dew Point 23 °F    
Average Humidity 68    
Maximum Humidity 85    
Minimum Humidity 55    
Precipitation  
Precipitation 0.00 in - - ()
Sea Level Pressure  
Sea Level Pressure 30.51 in    
Wind  
Wind Speed 3 mph (East)    
Max Wind Speed 6 mph    
Max Gust Speed -    
Visibility 10 miles    
Events      
Averages and records for this station are not official NWS values.
T = Trace of Precipitation, MM = Missing Value Source: NWS Daily Summary

Daily Weather History Graph

Daily Weather History Graph

Search for Another Location

Airport or City:

Trip Planner

Search our weather history database for the weather conditions in past years. The results will help you decide how hot, cold, wet, or windy it might be!

Date:

Astronomy

Jan. 27, 2013 Rise Set
Actual Time 7:22 AM EST 5:39 PM EST
Civil Twilight 6:54 AM EST 6:07 PM EST
Nautical Twilight 6:23 AM EST 6:37 PM EST
Astronomical Twilight 5:53 AM EST 7:08 PM EST
Moon 6:29 PM EST (1/27) 7:16 AM EST (1/27)
Length of Visible Light 11h 12m
Length of Day
10h 17m
Full, 100% of the Moon is Illuminated
Jan 27
Full
Feb 3
Last Quarter
Feb 10
New
Feb 17
First Quarter
Feb 25
Full

Hourly Weather History & Observations

Time (EST) Temp. Windchill Dew Point Humidity Pressure Visibility Wind Dir Wind Speed Gust Speed Precip Events Conditions
12:54 AM 28.0 °F 22.8 °F 21.9 °F 78% 30.41 in 10.0 mi North 4.6 mph - N/A   Clear
1:54 AM 28.0 °F 22.8 °F 19.9 °F 72% 30.43 in 10.0 mi NNW 4.6 mph - N/A   Clear
2:54 AM 28.0 °F - 19.9 °F 72% 30.45 in 10.0 mi Calm Calm - N/A   Clear
3:54 AM 25.0 °F - 19.9 °F 81% 30.45 in 10.0 mi Calm Calm - N/A   Clear
4:54 AM 26.1 °F - 19.0 °F 75% 30.45 in 10.0 mi Calm Calm - N/A   Clear
5:54 AM 24.1 °F - 18.0 °F 77% 30.47 in 10.0 mi Calm Calm - N/A   Clear
6:54 AM 24.1 °F - 18.0 °F 77% 30.50 in 10.0 mi Calm Calm - N/A   Clear
7:54 AM 23.0 °F 18.4 °F 19.0 °F 85% 30.53 in 7.0 mi NNE 3.5 mph - N/A   Clear
8:54 AM 28.0 °F - 24.1 °F 85% 30.56 in 5.0 mi Calm Calm - N/A   Clear
9:54 AM 30.9 °F 26.2 °F 26.1 °F 82% 30.58 in 8.0 mi East 4.6 mph - N/A   Clear
10:54 AM 35.1 °F 32.2 °F 26.1 °F 70% 30.60 in 10.0 mi East 3.5 mph - N/A   Clear
11:54 AM 36.0 °F - 25.0 °F 64% 30.58 in 10.0 mi Calm Calm - N/A   Partly Cloudy
12:08 PM 35.6 °F 31.7 °F 24.8 °F 65% 30.56 in 10.0 mi ENE 4.6 mph - N/A   Mostly Cloudy
12:35 PM 37.4 °F 34.9 °F 24.8 °F 60% 30.54 in 10.0 mi Variable 3.5 mph - N/A   Overcast
12:54 PM 37.0 °F 32.4 °F 24.1 °F 59% 30.54 in 10.0 mi ESE 5.8 mph - N/A   Mostly Cloudy
1:54 PM 39.0 °F 35.7 °F 24.1 °F 55% 30.53 in 10.0 mi East 4.6 mph - N/A   Partly Cloudy
2:54 PM 39.9 °F 36.7 °F 25.0 °F 55% 30.52 in 10.0 mi Variable 4.6 mph - N/A   Clear
3:54 PM 39.9 °F 37.8 °F 25.0 °F 55% 30.51 in 10.0 mi SE 3.5 mph - N/A   Clear
4:54 PM 39.0 °F 35.7 °F 24.1 °F 55% 30.52 in 10.0 mi SE 4.6 mph - N/A   Clear
5:54 PM 37.9 °F 35.5 °F 24.1 °F 57% 30.52 in 10.0 mi East 3.5 mph - N/A   Clear
6:54 PM 37.0 °F - 24.1 °F 59% 30.53 in 10.0 mi Calm Calm - N/A   Clear
7:54 PM 37.0 °F - 25.0 °F 62% 30.52 in 10.0 mi Calm Calm - N/A   Clear
8:54 PM 36.0 °F 33.3 °F 25.0 °F 64% 30.52 in 10.0 mi SE 3.5 mph - N/A   Mostly Cloudy
9:54 PM 36.0 °F 32.1 °F 26.1 °F 67% 30.52 in 10.0 mi South 4.6 mph - N/A   Overcast
10:54 PM 35.1 °F - 26.1 °F 70% 30.50 in 10.0 mi Calm Calm - N/A   Mostly Cloudy
11:54 PM 34.0 °F - 26.1 °F 73% 30.49 in 10.0 mi Calm Calm - N/A   Clear